Wind_Speed
39 38 37 38 38 37 37 37 37 37 37 37 36 36 35 35 34 34 34 33 32 32 31 31 30 29 28 28 27 26 26 25 25 25 24 23 23 23 23 22 22 21 20
40 40 39 40 40 39 39 38 38 39 38 37 37 37 37 37 36 36 35 35 35 34 33 32 31 31 30 30 29 29 28 27 27 26 26 26 25 24 24 24 23 22 21
42 42 41 41 41 41 40 40 40 39 39 39 39 39 39 39 38 38 37 37 36 36 35 34 34 33 32 32 31 31 30 30 29 28 28 27 27 26 26 25 25 24 23
43 43 43 43 43 43 42 42 41 41 40 40 41 41 41 40 40 39 39 39 38 38 37 36 36 35 34 34 34 33 32 32 31 30 30 29 29 28 27 27 27 26 26
44 44 45 45 44 44 44 43 43 42 42 42 42 42 42 42 42 42 41 41 40 40 39 39 38 37 36 36 36 35 34 34 34 32 32 31 31 30 29 29 28 28 28
46 46 47 47 46 46 46 45 45 44 44 43 44 43 43 44 44 44 43 43 42 42 41 41 41 40 39 38 38 37 36 36 36 34 34 33 33 32 31 31 30 30 30
46 47 47 47 47 47 47 47 46 46 46 45 45 45 45 45 45 45 45 45 44 44 43 43 43 44 42 41 40 39 38 38 37 37 36 35 34 34 34 34 33 33 32
47 47 47 47 48 48 48 48 47 47 47 47 47 47 46 46 46 46 46 46 46 46 45 45 44 44 44 43 43 42 41 40 39 39 39 38 36 36 36 36 35 35 35
47 48 48 48 48 48 48 48 49 48 48 49 49 48 48 48 48 48 48 47 47 47 47 46 46 45 45 44 43 44 43 42 41 40 40 40 39 38 37 36 36 37 37
47 47 48 48 49 49 49 49 49 49 49 49 49 50 50 49 49 48 48 48 48 48 48 48 47 47 47 47 45 44 44 44 44 44 42 41 40 40 40 39 38 38 38
47 47 48 48 49 49 49 49 50 50 50 51 50 50 50 50 50 50 50 50 50 49 49 50 49 48 48 48 47 46 45 45 45 45 45 43 42 41 41 41 40 39 39
49 48 48 49 49 49 50 50 51 52 52 52 52 51 51 51 52 52 51 52 52 51 51 51 51 50 50 50 49 47 46 46 47 47 47 46 45 44 43 43 42 41 41
51 51 51 50 51 51 51 52 52 53 52 52 53 53 53 53 53 53 53 53 54 53 53 52 52 52 52 52 51 50 48 47 47 48 49 48 47 46 45 45 43 43 43
52 52 52 52 53 53 53 53 53 53 53 52 52 53 54 54 54 54 54 55 55 55 54 54 54 54 54 54 53 52 51 50 49 49 50 49 49 48 47 47 46 45 44
53 53 54 54 54 54 54 54 54 54 54 53 53 53 54 54 54 54 55 55 56 56 56 56 56 56 56 55 55 54 53 52 51 51 51 50 49 49 49 48 48 47 47
54 54 54 54 55 55 54 54 54 54 54 55 55 55 55 55 55 56 56 56 57 57 56 56 56 57 57 57 57 56 55 54 53 53 53 52 51 50 49 49 49 49 47
54 55 55 55 55 55 55 55 55 55 55 55 55 56 56 56 56 57 57 57 57 58 57 57 57 57 57 58 58 58 57 56 55 54 54 54 53 52 51 50 50 50 48
53 53 54 54 55 55 55 55 55 56 56 56 56 56 57 57 57 58 58 57 57 58 59 58 58 57 58 58 59 58 58 58 57 56 55 54 54 53 52 52 52 52 51
53 52 52 54 55 55 55 55 56 57 57 57 57 57 58 58 58 58 58 58 59 59 59 59 59 58 58 58 58 58 58 58 58 57 57 56 55 54 53 52 52 52 52
54 54 53 53 54 55 55 55 56 56 57 57 57 57 58 58 58 59 59 59 59 59 60 60 60 60 58 58 58 58 59 59 59 58 58 57 57 56 55 54 54 54 53
53 54 55 54 55 55 55 55 55 56 56 56 56 57 57 57 58 58 59 59 59 59 60 60 60 60 59 59 59 59 59 59 59 59 59 59 58 58 57 56 55 55 55
51 52 52 53 53 53 53 53 54 55 55 55 55 55 56 57 56 56 56 57 58 58 58 59 60 60 59 60 60 61 60 60 60 59 59 59 59 58 58 57 56 56 56
48 49 50 50 50 51 52 53 54 54 54 54 54 54 55 55 55 55 55 56 56 57 58 58 59 59 59 60 60 60 60 60 59 59 60 59 59 58 58 58 57 57 57
46 48 49 50 50 50 50 51 52 53 53 53 53 54 54 54 54 54 55 55 55 55 55 56 57 58 59 59 59 60 61 61 60 60 60 60 60 60 60 59 58 57 57
45 45 46 47 47 48 50 50 50 51 51 51 52 52 53 53 54 54 54 53 53 54 55 55 56 57 59 59 59 59 59 60 60 60 60 60 60 60 59 58 58 57 57
44 44 44 45 45 46 47 48 49 49 49 50 50 50 51 51 52 53 53 53 54 54 55 55 55 56 58 59 59 59 59 59 59 58 58 58 58 58 58 57 57 57 57
Wind_Direction
257 257 258 258 258 257 256 256 256 255 255 253 252 252 251 251 251 249 247 247 247 247 248 247 247 247 247 247 247 249 251 252 252 253 256 257 258 259 258 257 258 260 261
257 256 257 257 257 257 256 256 256 256 255 254 253 253 253 252 252 251 250 249 248 247 247 248 248 248 248 249 249 250 251 253 253 254 256 258 259 260 259 257 258 258 260
257 256 256 256 257 257 257 257 256 256 256 254 253 253 252 252 251 251 251 250 249 248 247 248 248 248 249 250 251 251 253 254 254 254 256 257 258 259 259 258 257 258 257
258 256 256 256 256 257 258 258 257 256 256 255 253 252 252 251 251 251 250 250 249 249 248 248 249 249 250 250 251 251 252 254 254 254 255 255 257 258 258 257 257 257 257
258 257 257 256 257 258 258 258 258 257 256 255 254 253 252 252 251 251 250 250 249 248 248 248 249 249 250 251 251 251 252 254 255 255 254 254 256 257 258 257 255 255 255
258 258 257 257 257 258 258 258 258 257 255 255 254 253 253 252 252 251 251 250 250 249 248 249 249 250 249 250 251 251 252 253 254 255 255 254 254 256 257 257 255 255 256
258 258 258 258 258 258 258 258 257 256 256 255 254 253 253 253 252 251 251 251 250 250 249 249 249 250 250 250 251 251 251 252 253 253 254 254 254 254 255 256 256 256 257
259 258 258 258 258 258 258 258 257 256 255 255 255 254 254 252 252 252 252 251 251 250 249 249 249 249 250 250 250 251 251 251 252 253 254 255 254 254 255 255 257 256 256
260 260 259 258 259 259 258 257 257 256 256 255 255 255 254 253 252 252 251 251 251 249 249 248 249 249 249 250 250 250 250 249 250 252 254 255 255 254 255 255 256 256 256
261 260 260 259 259 259 259 257 256 255 255 256 255 255 254 254 252 251 250 250 250 250 249 249 249 249 249 250 250 250 249 249 249 249 251 253 254 255 255 255 255 256 256
261 261 260 259 258 259 259 258 256 256 255 255 255 255 255 254 253 252 250 250 250 250 249 249 249 249 249 249 250 250 249 249 249 249 250 252 254 255 255 254 255 256 255
261 261 261 260 259 259 259 258 257 256 256 255 255 255 255 255 254 253 252 250 251 251 250 249 249 249 249 249 250 250 249 249 249 249 250 252 254 254 255 255 255 256 255
261 261 261 261 260 259 259 258 257 257 256 256 255 255 255 255 254 253 252 251 251 251 251 250 249 248 249 249 250 249 248 249 250 250 251 252 253 254 255 255 254 256 256
261 261 261 261 260 260 259 258 257 257 256 256 256 256 255 255 254 254 253 252 251 251 251 250 250 249 249 249 249 249 249 249 250 250 251 252 253 254 255 254 254 255 256
262 262 261 261 260 260 259 258 258 257 256 256 256 256 255 254 254 254 254 254 252 251 251 251 250 249 248 248 248 248 248 248 249 250 250 251 253 254 254 254 254 256 256
262 262 263 262 260 259 259 258 258 257 256 256 257 256 256 256 255 255 254 254 252 251 251 251 250 249 248 248 248 248 248 249 249 250 250 250 252 252 253 252 253 254 256
263 263 263 262 261 259 258 258 257 257 256 256 257 257 257 256 256 255 254 254 253 251 251 250 250 249 248 248 247 248 248 249 249 249 250 250 251 252 252 252 253 253 255
264 264 263 262 261 259 258 258 257 257 256 256 256 256 257 256 256 256 255 255 253 252 251 250 250 249 248 247 247 247 248 249 249 249 249 250 251 252 252 253 254 255 256
263 264 263 262 261 259 258 258 258 257 257 257 256 257 257 256 256 255 255 255 255 253 252 251 250 249 248 248 246 246 247 248 250 249 249 250 251 252 253 253 254 255 257
263 263 264 264 262 261 259 258 258 258 258 257 257 256 256 256 256 255 255 255 256 255 253 251 250 249 248 248 248 247 247 248 250 250 249 250 251 251 252 253 254 255 256
264 264 264 264 263 262 260 259 258 258 257 257 257 256 256 256 256 255 255 255 255 254 253 251 250 248 248 248 248 248 248 248 249 249 250 250 250 251 251 252 253 254 256
265 264 265 264 263 262 261 260 258 258 257 257 257 256 256 256 255 255 254 254 254 254 253 251 250 248 248 249 249 249 249 249 249 249 250 250 250 251 252 252 253 254 255
267 266 265 264 263 261 260 260 259 259 258 258 257 257 256 255 254 254 254 254 254 253 252 251 250 249 249 249 249 249 249 249 248 248 249 250 251 252 252 252 253 253 254
268 267 267 265 263 262 261 260 259 259 258 258 257 257 256 255 254 253 254 254 253 252 252 251 251 250 249 250 249 249 249 248 248 248 250 250 250 252 253 253 254 253 254
271 270 268 267 265 263 262 261 259 258 258 258 258 258 257 256 255 254 254 253 253 252 252 251 251 250 250 250 250 250 249 248 248 249 250 250 250 250 251 252 253 253 253
273 272 270 268 266 264 262 261 260 259 259 258 258 258 258 256 255 254 254 253 253 252 252 252 253 253 252 252 251 250 249 249 249 249 249 249 250 249 249 250 252 252 252
Height
5760 5761 5762 5764 5765 5767 5768 5770 5772 5774 5775 5778 5780 5782 5784 5787 5790 5793 5795 5798 5801 5804 5806 5808 5811 5813 5815 5817 5819 5821 5823 5825 5826 5827 5828 5829 5831 5832 5833 5834 5835 5836 5837
5750 5752 5753 5754 5756 5757 5759 5761 5763 5764 5766 5769 5771 5773 5776 5778 5781 5784 5787 5790 5793 5796 5799 5801 5804 5806 5808 5811 5813 5815 5817 5819 5820 5822 5823 5824 5826 5827 5828 5829 5830 5831 5832
5740 5741 5743 5744 5746 5747 5749 5751 5753 5755 5757 5759 5761 5764 5767 5769 5772 5775 5779 5782 5785 5788 5791 5794 5796 5799 5801 5804 5806 5808 5810 5812 5814 5816 5817 5818 5820 5821 5823 5824 5825 5826 5827
5729 5730 5732 5734 5736 5738 5739 5741 5743 5745 5747 5749 5751 5754 5757 5760 5762 5766 5769 5773 5776 5779 5782 5785 5788 5791 5794 5796 5799 5801 5803 5805 5807 5809 5810 5812 5814 5815 5817 5818 5819 5821 5822
5718 5719 5721 5723 5725 5727 5729 5731 5733 5735 5737 5739 5741 5743 5746 5749 5752 5756 5759 5763 5766 5770 5773 5777 5780 5783 5785 5788 5791 5793 5796 5798 5800 5802 5803 5805 5807 5809 5810 5812 5813 5814 5816
5707 5708 5710 5712 5714 5716 5718 5720 5722 5724 5726 5728 5730 5733 5735 5738 5742 5745 5749 5752 5756 5759 5763 5767 5770 5773 5776 5779 5782 5785 5787 5790 5792 5794 5796 5798 5800 5801 5803 5805 5806 5808 5809
5695 5697 5698 5700 5702 5704 5706 5708 5710 5712 5715 5717 5720 5722 5725 5728 5731 5734 5737 5741 5745 5748 5752 5756 5760 5763 5767 5770 5773 5776 5778 5781 5783 5785 5787 5790 5791 5794 5795 5797 5799 5800 5802
5683 5685 5687 5688 5690 5692 5694 5696 5698 5700 5703 5705 5708 5711 5714 5717 5720 5722 5726 5729 5733 5737 5741 5745 5749 5752 5756 5759 5763 5766 5768 5771 5774 5776 5779 5781 5783 5785 5787 5789 5791 5793 5794
5672 5673 5675 5676 5678 5680 5682 5684 5686 5688 5691 5693 5696 5699 5702 5705 5709 5711 5714 5718 5721 5725 5729 5733 5737 5741 5745 5748 5752 5755 5758 5761 5764 5767 5769 5772 5774 5776 5778 5780 5782 5784 5786
5660 5661 5663 5664 5666 5668 5670 5671 5673 5676 5678 5681 5683 5686 5689 5693 5696 5700 5703 5706 5709 5713 5717 5721 5726 5730 5733 5737 5741 5744 5747 5751 5753 5756 5759 5762 5765 5767 5769 5771 5773 5775 5777
5647 5649 5650 5652 5653 5655 5657 5659 5661 5663 5666 5668 5670 5673 5676 5679 5683 5686 5690 5694 5697 5701 5705 5709 5713 5717 5721 5725 5729 5733 5736 5739 5742 5745 5748 5751 5754 5757 5759 5761 5763 5766 5768
5635 5636 5637 5639 5640 5642 5644 5646 5648 5650 5652 5654 5657 5659 5662 5666 5670 5673 5677 5681 5685 5688 5692 5696 5700 5704 5708 5712 5716 5720 5724 5727 5730 5734 5737 5740 5743 5746 5748 5750 5753 5755 5758
5622 5623 5625 5626 5627 5629 5631 5633 5634 5636 5639 5641 5643 5646 5649 5652 5656 5659 5663 5667 5671 5675 5679 5682 5686 5691 5695 5699 5703 5708 5711 5715 5719 5722 5725 5729 5732 5735 5737 5740 5742 5744 5747
5608 5609 5611 5612 5613 5615 5617 5618 5620 5623 5625 5627 5630 5632 5635 5638 5641 5645 5648 5652 5656 5661 5665 5669 5673 5677 5681 5685 5689 5694 5698 5702 5706 5709 5713 5716 5719 5722 5725 5728 5730 5733 5736
5594 5595 5596 5597 5599 5600 5602 5604 5606 5608 5611 5613 5616 5618 5621 5624 5627 5630 5633 5637 5641 5645 5650 5655 5659 5663 5667 5671 5675 5679 5684 5689 5693 5697 5700 5703 5707 5710 5713 5715 5718 5721 5724
5580 5581 5581 5582 5584 5585 5587 5589 5591 5594 5596 5599 5601 5604 5606 5609 5612 5615 5618 5621 5625 5630 5635 5640 5644 5648 5652 5656 5661 5665 5670 5674 5679 5683 5687 5690 5694 5697 5700 5703 5706 5709 5712
5565 5566 5566 5567 5568 5570 5572 5574 5576 5579 5581 5584 5586 5589 5591 5594 5597 5600 5602 5606 5610 5614 5619 5624 5628 5632 5636 5641 5646 5650 5655 5660 5664 5668 5673 5677 5680 5684 5687 5690 5693 5696 5699
5550 5551 5551 5552 5553 5554 5556 5558 5561 5563 5566 5568 5571 5574 5576 5578 5581 5584 5586 5590 5594 5598 5603 5608 5613 5617 5621 5625 5630 5636 5641 5645 5650 5654 5659 5663 5666 5670 5673 5677 5680 5684 5687
5535 5535 5535 5536 5537 5539 5540 5542 5545 5547 5550 5552 5555 5557 5560 5562 5565 5567 5570 5574 5577 5581 5586 5591 5597 5601 5605 5610 5615 5620 5625 5630 5635 5639 5644 5648 5652 5656 5660 5663 5667 5670 5673
5519 5520 5520 5521 5521 5523 5524 5526 5528 5531 5533 5536 5538 5541 5543 5546 5549 5551 5554 5558 5561 5565 5569 5574 5580 5585 5590 5594 5599 5604 5610 5614 5619 5624 5629 5633 5638 5642 5646 5649 5653 5656 5659
5504 5504 5505 5505 5506 5507 5508 5510 5512 5514 5517 5519 5522 5524 5527 5529 5532 5534 5538 5541 5545 5549 5553 5558 5563 5569 5574 5579 5584 5588 5593 5598 5603 5608 5613 5618 5623 5627 5630 5634 5638 5641 5645
5488 5488 5489 5489 5490 5491 5492 5494 5496 5498 5501 5503 5506 5508 5511 5513 5516 5518 5521 5525 5528 5533 5537 5541 5547 5552 5558 5562 5567 5572 5577 5583 5589 5594 5597 5602 5607 5611 5615 5619 5622 5626 5630
5473 5473 5474 5474 5475 5476 5477 5479 5480 5482 5485 5488 5490 5493 5495 5497 5500 5503 5506 5509 5513 5517 5521 5526 5531 5536 5541 5547 5551 5557 5561 5566 5572 5577 5581 5587 5591 5595 5599 5603 5607 5611 5614
5459 5459 5459 5459 5460 5461 5462 5463 5465 5467 5469 5472 5474 5477 5480 5482 5485 5488 5491 5494 5498 5502 5506 5511 5516 5521 5525 5529 5535 5540 5544 5550 5556 5561 5564 5570 5575 5579 5583 5587 5591 5595 5599
5445 5444 5444 5444 5445 5446 5447 5448 5449 5451 5454 5456 5459 5462 5464 5467 5470 5473 5476 5480 5484 5487 5490 5495 5500 5504 5509 5514 5519 5523 5529 5534 5539 5544 5548 5553 5558 5562 5567 5571 5575 5579 5583
5431 5431 5430 5430 5431 5431 5432 5433 5434 5436 5439 5442 5444 5447 5449 5452 5454 5457 5460 5464 5469 5472 5476 5480 5484 5489 5493 5498 5503 5508 5513 5517 5523 5528 5532 5536 5541 5544 5550 5555 5559 5563 5567